Volver al catálogo

STARLINK-4303

ActivoComunicacionesVLEO
NORAD 53544·PAYLOAD·🇺🇸 United States

Lanzado Aug 19, 2022 desde Cape Canaveral Space Force Station

Loading…

Próximos Pases (próximas 24 horas)

TLE

ActualizadoSource: CelesTrak SupGP

Época: Sep 15, 2026, 02:13 UTC

1 53544C 22101T   26258.09284722  .00001171  00000+0  34582-4 0  2587
2 53544  53.1575 278.8844 0001291  90.2626 200.5461 15.34394696    17

Sigue STARLINK-4303 en tiempo real con AllMySat

Download on the App Store